Find Starlink 34744

NORAD ID: 64952 Int'l Des: 2025-158 Owner: SPXS Country: US Constellation: starlink operational
LEOCIRCULARRETROGRADESSO

当前视图

正在加载3D地球...

About Starlink 34744

Starlink 34744 (NORAD 64952) is a starlink constellation satellite (v2 mini) launched Jul 27, 2025 by SPXS of US. It operates in LEO, CIRCULAR, RETROGRADE, SSO orbit with a mass of 575.00 kg.

即将过境

Passes for default location (London). Set your location on the main map for personalized predictions.

高度历史

Loading altitude history...

两行轨道根数

1 64952U 25158W 26263.40644125 .00014499 00000-0 45045-3 0 9990
2 64952 97.2873 121.7324 0000535 93.0580 267.0723 15.33453055 64698
Epoch: Sep 20, 2026 • Age: 10 hours

当前状态

高度 470.1 km
远地点 / 近地点 N/A
速度 7.63 km/s
星下点 35.28°N, 172.31°W
发射日期 Jul 27, 2025
运行时间 1.1 years
类型 internet

技术详情

分类 Payload
质量 575.00 kg
干质量 530.00 kg
长度 0.30 m
跨度 29.00 m
形状 ? Box + pan
制造商 SPXS
平台类型 Starlink V2MO
阶段状态 In Orbit
所有者/国家 SPXS/US

Most Searched